Regional Weather Roundup
Issued by NWS Jackson, KY

Home | Current Version | Previous Version | Text Only | Print | Product List | Glossary Off
Versions: 1 2 3 4 5 6 7 8 9 10 11 12 13 14 15 16 17 18 19 20 21 22 23 24 25 26 27

000
ASUS43 KJKL 042210
RWRJKL

EAST KENTUCKY HOURLY WEATHER ROUNDUP
NATIONAL WEATHER SERVICE JACKSON KY
600 PM EDT WED MAY 04 2016

NOTE: "FAIR" INDICATES FEW OR NO CLOUDS BELOW 12,000 FEET WITH
NO SIGNIFICANT WEATHER AND/OR OBSTRUCTIONS TO VISIBILITY.

* THESE REPORTS ARE NOT UNDER NWS QUALITY CONTROL AND MAY NOT
  REPORT WEATHER SUCH AS PRECIPITATION AND FOG.

KYZ079-080-083-085-087-088-110-112-115-119-120-042300
...EASTERN KENTUCKY...

CITY           SKY/WX    TMP DP  RH WIND       PRES   REMARKS
JACKSON        CLOUDY    51  47  86 VRB3      29.69F
LONDON         CLOUDY    56  47  71 S6        29.68F
SOMERSET*      TSTM      50  43  76 N8G21     29.71R
MONTICELLO*    TSTM      57  52  83 W18       29.70
WILLIAMSBURG*  MOCLDY    57  54  88 S6        29.69F
MIDDLESBORO*   PTSUNNY   55  51  86 CALM      29.71F
HARLAN APT*    CLOUDY    52  46  82 CALM      29.71F
HAZARD APT*    CLOUDY    54  52  94 CALM      29.70F
BLACK MTN*       N/A     43  43 100 SE3         N/A
PIKE CO APT*   LGT RAIN  51  49  95 W5        29.71R
BIG SANDY APT* DRIZZLE   53  51  94 W5        29.70R
MOREHEAD APT*  LGT RAIN  52  48  87 CALM      29.71R
$$

KYZ035-036-041-042-044-050-067-078-099-042300
...CENTRAL KENTUCKY...

CITY           SKY/WX    TMP DP  RH WIND       PRES   REMARKS
MT STERLING*   DRIZZLE   50  50 100 CALM      29.70R
FLEMING/MASON* LGT RAIN  52  48  85 W8        29.69S
DANVILLE*      PTSUNNY   55  50  82 N13       29.70S
RICHMOND*      CLOUDY    54  50  87 NW9       29.68S
LEXINGTON      MOSUNNY   57  47  69 NW10      29.69R
FRANKFORT      MOSUNNY   56  47  71 W8        29.69R
LOUISVILLE     LGT RAIN  58  46  64 NW6       29.71R
LEBANON*       LGT RAIN  52  45  76 NW14G22   29.72R
BOWLING GREEN  CLOUDY    66  51  58 NW12G17   29.71S
$$

KYZ091>093-OHZ055-061-077-WVZ005-015-034-035-042-042300
...SOUTHERN OHIO/WEST VIRGINIA...

CITY           SKY/WX    TMP DP  RH WIND       PRES   REMARKS
COVINGTON      CLOUDY    56  40  55 NW22G32   29.68R
COLUMBUS       RAIN      50  48  93 W6        29.65R
DAYTON         CLOUDY    52  38  58 NW21G26   29.69R
WILMINGTON     LGT RAIN  50  47  89 W3        29.66R
HUNTINGTON     LGT RAIN  54  50  86 W5        29.68R
CHARLESTON     LGT RAIN  55  45  68 NW8       29.66R
PINEVILLE*     PTSUNNY   62  35  36 MISG      29.70S
BECKLEY        PTSUNNY   54  42  64 SE5       29.66F
$$

VAZ002-007-008-TNZ017-027-036-066-071-042300
...SOUTHWEST VIRGINIA/EAST TENNESSEE...

CITY           SKY/WX    TMP DP  RH WIND       PRES   REMARKS
WISE*          CLOUDY    54  34  47 W9        29.70S
BRISTOL        CLOUDY    62  39  42 SW12      29.67S
MORRISTOWN*    CLOUDY    57  45  62 NW20G26   29.71R
SEVIERVILLE*   CLOUDY    63  41  45 W5        29.68R
KNOXVILLE      RAIN      56  49  77 NW22G30   29.72R
OAK RIDGE      LGT RAIN  54  51  90 VRB3      29.73F FOG
CROSSVILLE     PTSUNNY   55  49  80 SW8       29.72F
NASHVILLE      PTSUNNY   66  45  45 NW24G36   29.73R THUNDER
$$

...KEY TO REMARKS...
VSB - VISIBILITY IN MILES
WCI - WIND CHILL INDEX
HX  - HEAT INDEX

$$




USA.gov is the U.S. government's official web portal to all federal, state and local government web resources and services.